Home > Weather > Buxar > Past weeks

Flag for India Past Weather in Buxar, Bihar, India — Yesterday and Last 2 Weeks

Now
81 °F

Broken clouds.


Feels Like: 89 °F
Forecast: 79 / 92 °F
Wind: 6 mph from East

Location: Lucknow / Amausi

Current Time: Jul 27, 2016 at 7:24:35 AM

Latest Report: Jul 27, 2016 at 6:30 AM


Visibility: 2 mi

Pressure: 29.65 "Hg

Humidity: 100%

Dew Point: 81 °F

Location of BuxarLocation

Past Weather in Buxar — Graph

°F

Buxar Temperature Yesterday

Maximum temperature yesterday: 88 °F (at 2:30 PM)
Minimum temperature yesterday: 81 °F (at 11:00 PM)
Average temperature yesterday: 84 °F

High & Low Weather Summary for the Past Weeks

 TemperatureHumidityPressure
High99 °F (Jul 14, 3:00 PM)100% (Jul 13, 10:00 PM)29.71 "Hg (Jul 13, 10:00 PM)
Low79 °F (Jul 19, 5:00 AM)46% (Jul 19, 4:00 PM)29.39 "Hg (Jul 14, 4:30 PM)
Average87 °F88%29.53 "Hg
* Reported Jul 12 7:00 AM — Jul 27 6:30 AM, Buxar, Weather by CustomWeather, © 2016

Note: Actual official high and low records may vary slightly from our data, if they occured in-between our weather recording intervals... More about our weather records

Advertising

Buxar Weather History for the Previous 24 Hours

Scroll right to see more
 ConditionsComfort  
Time TempWeatherWind HumidityBarometerVisibility
6:30 AM
Wed, Jul 27
81 °FLight rain. Broken clouds.7 mph100%29.65 "Hg2 mi
5:30 AM81 °FLight rain. Overcast.9 mph100%29.65 "Hg2 mi
5:00 AM81 °FLight rain. Partly cloudy.7 mph100%29.65 "Hg2 mi
4:00 AM82 °FPartly cloudy.5 mph94%29.65 "Hg2 mi
3:00 AM81 °FPartly cloudy.No wind100%29.65 "Hg2 mi
2:00 AM81 °FLight rain. Partly cloudy.2 mph100%29.65 "Hg2 mi
1:00 AM81 °FPartly cloudy.No wind100%29.65 "Hg2 mi
11:00 PM
Tue, Jul 26
81 °FPartly cloudy.No wind100%29.68 "Hg2 mi
10:00 PM82 °FPartly cloudy.5 mph94%29.68 "Hg2 mi
9:00 PM82 °FPartly cloudy.5 mph94%29.68 "Hg2 mi
8:30 PM82 °FPartly cloudy.No wind94%29.68 "Hg2 mi
8:00 PM82 °FPartly cloudy.No wind94%29.65 "Hg2 mi
7:30 PM82 °FPartly cloudy.3 mph94%29.62 "Hg2 mi
7:00 PM84 °FBroken clouds.5 mph89%29.62 "Hg2 mi
6:30 PM84 °FBroken clouds.7 mph89%29.59 "Hg2 mi
6:00 PM84 °FMore clouds than sun.9 mph89%29.59 "Hg2 mi
5:30 PM84 °FMore clouds than sun.8 mph89%29.56 "Hg2 mi
5:00 PM84 °FMore clouds than sun.7 mph94%29.56 "Hg2 mi
4:30 PM86 °FMore clouds than sun.12 mph89%29.56 "Hg2 mi
4:00 PM86 °FMore clouds than sun.9 mph89%29.59 "Hg2 mi
3:30 PM88 °FMore clouds than sun.9 mph84%29.59 "Hg2 mi
3:00 PM88 °FMore clouds than sun.9 mph84%29.62 "Hg2 mi
2:30 PM88 °FMore clouds than sun.8 mph84%29.62 "Hg2 mi
2:00 PM86 °FMore clouds than sun.8 mph89%29.65 "Hg2 mi
1:30 PM86 °FMore clouds than sun.5 mph89%29.65 "Hg2 mi
1:00 PM86 °FMore clouds than sun.7 mph89%29.68 "Hg2 mi
11:30 AM86 °FMore clouds than sun.6 mph94%29.71 "Hg2 mi
10:30 AM86 °FMore clouds than sun.9 mph89%29.68 "Hg2 mi
10:00 AM84 °FMore clouds than sun.9 mph94%29.68 "Hg2 mi
9:30 AM84 °FFog.7 mph94%29.68 "Hg2 mi
9:00 AM84 °FFog.6 mph100%29.68 "Hg2 mi
8:30 AM84 °FFog.6 mph100%29.68 "Hg2 mi
8:00 AM84 °FFog.6 mph94%29.68 "Hg2 mi
7:30 AM82 °FFog.3 mph100%29.65 "Hg2 mi
7:00 AM82 °FMore clouds than sun.No wind100%29.65 "Hg2 mi
Weather by CustomWeather, © 2016

See weather overviewHow to use our weather pages